Pagrindinis puslapis
METAR-TAF:

METAR-TAF

Oro uostai :

Reid-Hillview Airport of Santa Clara County

San Chosė, Kalifornija, Jungtinės Amerikos Valstijos

platuma: 37-20N, ilguma: 121-49W, Aukštis: 41 m

Dabartinis oras

Ataskaita buvo paskelbta 3 valandos ir 25 minutes, ne 04:55 UTC
Ramus vėjas
Temperatūra 26°C
Drėgmė 45%
Slėgis 1009 hPa
Matomumas: 16.1 km
Giedras dangus

METAR: KRHV 170455Z 00000KT 10SM SKC 26/13 A2980 RMK LAST

Laikas: 01:20 (08:20 UTC)


TAF: trūkstamas

Orai ataskaitas ir orų prognozės (METAR, TAF).

turimą stotys yra geltonos ir raudonos taškus žemėlapyje.

Perkelti pele per norėdami pamatyti stoties vardą.

Tada spustelėkite, norėdami matyti oro stebėjimo ir prognozės.

Norėdami pakeisti žemėlapį: spustelėkite ant žalios mygtukų su juodo kryžiaus žemyn,; žalią mygtuką su brūkšneliu, jei norite nutolinti; arba žalių rodyklių gretimoms žemėlapius.


METAR-TAF: